Eglinton, United Kingdom

9:56 PM BST on September 19, 2017 (GMT +0100)
Eglinton

Weather History for EGAE - March, 2013

Change the Weather History Date:

Tuesday, March 12, 2013

  Actual Average Record
Temperature  
Mean Temperature 38 °F -  
Max Temperature 44 °F 49 °F 104 °F (2002)
Min Temperature 32 °F 40 °F 32 °F (2001)
Degree Days  
Heating Degree Days 27    
Moisture  
Dew Point 33 °F    
Average Humidity 74    
Maximum Humidity 87    
Minimum Humidity 61    
Precipitation  
Precipitation 0.00 in - - ()
Sea Level Pressure  
Sea Level Pressure 30.05 in    
Wind  
Wind Speed 9 mph ()    
Max Wind Speed 17 mph    
Max Gust Speed -    
Visibility 6.2 miles    
Events Rain    
Averages and records for this station are not official NWS values.
T = Trace of Precipitation, MM = Missing Value Source: Averaged Metar Reports

Daily Weather History Graph

Daily Weather History Graph

Search for Another Location

Airport or City:

Trip Planner

Search our weather history database for the weather conditions in past years. The results will help you decide how hot, cold, wet, or windy it might be!

Date:

Astronomy

Mar. 12, 2013 Rise Set
Actual Time 6:51 AM GMT 6:26 PM GMT
Civil Twilight 6:15 AM GMT 7:02 PM GMT
Nautical Twilight 5:32 AM GMT 7:45 PM GMT
Astronomical Twilight 4:49 AM GMT 8:29 PM GMT
Moon 6:37 AM GMT (3/12) 7:45 PM GMT (3/12)
Length of Visible Light 12h 47m
Length of Day
11h 35m
New Moon, 1% of the Moon is Illuminated
Mar 12
New Moon
Mar 19
First Quarter
Mar 27
Full
Apr 3
Last Quarter
Apr 10
New

Hourly Weather History & Observations

Time (GMT) Temp. Windchill Dew Point Humidity Pressure Visibility Wind Dir Wind Speed Gust Speed Precip Events Conditions
8:20 AM 32.0 °F 24.2 °F 23.0 °F 69% 30.12 in 6.2 mi WSW 9.2 mph - N/A   Mostly Cloudy
8:50 AM 33.8 °F 26.4 °F 26.6 °F 75% 30.09 in 6.2 mi SW 9.2 mph - N/A   Mostly Cloudy
9:20 AM 33.8 °F 27.0 °F 26.6 °F 75% 30.09 in 6.2 mi SW 8.1 mph - N/A   Scattered Clouds
9:50 AM 35.6 °F 29.2 °F 28.4 °F 75% 30.09 in 6.2 mi SW 8.1 mph - N/A   Mostly Cloudy
10:20 AM 37.4 °F 30.3 °F 30.2 °F 75% 30.09 in 6.2 mi WSW 10.4 mph - N/A   Mostly Cloudy
10:50 AM 37.4 °F 30.3 °F 30.2 °F 75% 30.09 in 6.2 mi WSW 10.4 mph - N/A   Mostly Cloudy
11:20 AM 41.0 °F 35.2 °F 33.8 °F 76% 30.09 in 6.2 mi WSW 9.2 mph - N/A   Scattered Clouds
11:50 AM 41.0 °F 35.8 °F 33.8 °F 76% 30.06 in 6.2 mi West 8.1 mph - N/A   Scattered Clouds
12:20 PM 44.6 °F 39.7 °F 33.8 °F 66% 30.06 in 6.2 mi NNW 9.2 mph - N/A   Mostly Cloudy
12:50 PM 44.6 °F 39.2 °F 32.0 °F 61% 30.06 in 6.2 mi NNW 10.4 mph - N/A   Mostly Cloudy
1:20 PM 44.6 °F 38.1 °F 32.0 °F 61% 30.06 in 6.2 mi NNW 13.8 mph - N/A   Mostly Cloudy
1:50 PM 42.8 °F 34.8 °F 35.6 °F 76% 30.04 in 6.2 mi North 17.3 mph - N/A   Mostly Cloudy
2:20 PM 42.8 °F 37.0 °F 35.6 °F 76% 30.04 in 6.2 mi NNW 10.4 mph - N/A   Scattered Clouds
2:50 PM 44.6 °F 38.4 °F 35.6 °F 71% 30.04 in 6.2 mi NNW 12.7 mph - N/A   Scattered Clouds
3:20 PM 44.6 °F 37.2 °F 33.8 °F 66% 30.01 in 6.2 mi North 17.3 mph - N/A   Scattered Clouds
3:50 PM 44.6 °F 38.1 °F 35.6 °F 71% 30.01 in 6.2 mi North 13.8 mph - N/A Rain Light Rain Showers
4:20 PM 44.6 °F 38.8 °F 35.6 °F 71% 30.01 in 6.2 mi NNW 11.5 mph - N/A   Mostly Cloudy
4:50 PM 41.0 °F 33.9 °F 35.6 °F 81% 30.01 in 6.2 mi North 12.7 mph - N/A   Mostly Cloudy
5:20 PM 41.0 °F 36.4 °F 35.6 °F 81% 30.01 in 6.2 mi NW 6.9 mph - N/A   Scattered Clouds
5:50 PM 41.0 °F 37.1 °F 35.6 °F 81% 30.01 in 6.2 mi NW 5.8 mph - N/A   Scattered Clouds
6:20 PM 41.0 °F - 37.4 °F 87% 30.01 in 6.2 mi Calm Calm - N/A   Mostly Cloudy